Location: El Bakhil
(32.7726°N, 5.5387°W)
Time: 05:20:10
(UTC+00:00)

N. Korean satellite - Pass Details

Date: 09 December 2021
Orbit: 447 x 491 km, 97.3° (Epoch: 22 January)

Event Time Altitude Azimuth Distance (km) Brightness Sun altitude
Rises 17:39:07 0° 199° (SSW) 2,520 10.9 -5.2°
Reaches altitude 10° 17:41:38 10° 217° (SW) 1,637 10.4 -5.7°
Maximum altitude 17:44:10 19° 264° (W) 1,189 9.8 -6.2°
Drops below altitude 10° 17:46:42 10° 311° (NW) 1,625 9.6 -6.7°
Sets 17:49:11 0° 330° (NNW) 2,495 10.3 -7.1°
